Temperature
1 1 -0 -1 -2 -2 -3 -4 -5 -5 -4 -4 -4 -4 -5 -5 -5 -5 -5 -6 -6 -5 -5 -5 -5 -5 -4 -4 -4 -4 -4 -4 -3 -3 -2 -2 -1 -1
0 -1 -2 -3 -3 -4 -4 -5 -5 -6 -5 -5 -5 -5 -5 -6 -6 -6 -6 -6 -6 -6 -6 -6 -6 -5 -5 -5 -5 -5 -5 -4 -4 -3 -3 -2 -2 -1
-1 -2 -3 -4 -5 -5 -5 -6 -6 -6 -6 -6 -6 -6 -6 -6 -6 -6 -7 -7 -7 -7 -7 -6 -6 -6 -6 -6 -6 -6 -5 -5 -5 -4 -4 -3 -2 -2
-3 -4 -5 -5 -6 -6 -6 -6 -6 -6 -6 -7 -6 -6 -6 -6 -7 -7 -7 -7 -8 -8 -7 -7 -7 -7 -7 -7 -7 -6 -6 -6 -5 -5 -4 -4 -3 -3
-4 -5 -5 -6 -6 -7 -7 -7 -7 -7 -7 -7 -7 -7 -7 -7 -7 -8 -8 -8 -8 -8 -8 -8 -8 -8 -8 -7 -7 -7 -7 -7 -6 -6 -5 -5 -4 -3
-5 -5 -6 -6 -7 -7 -7 -7 -7 -7 -7 -7 -7 -7 -7 -7 -8 -8 -9 -9 -9 -9 -9 -9 -8 -8 -8 -8 -8 -8 -8 -7 -7 -6 -6 -5 -4 -4
-5 -6 -6 -7 -7 -7 -7 -7 -8 -8 -7 -7 -7 -7 -8 -8 -9 -9 -9 -9 -9 -9 -9 -9 -9 -9 -9 -9 -9 -9 -8 -7 -7 -6 -6 -6 -5 -4
-6 -6 -7 -7 -8 -8 -8 -8 -8 -8 -8 -8 -8 -8 -9 -9 -9 -9 -9 -9 -10 -10 -10 -10 -10 -10 -10 -10 -9 -9 -8 -8 -7 -7 -7 -6 -6 -5
-7 -7 -8 -8 -8 -8 -8 -8 -8 -8 -8 -9 -9 -9 -10 -10 -10 -10 -10 -10 -10 -10 -11 -10 -10 -10 -10 -10 -10 -9 -9 -8 -8 -7 -7 -6 -6 -6
-8 -8 -8 -8 -8 -8 -8 -8 -8 -8 -9 -9 -10 -10 -10 -10 -10 -10 -10 -11 -11 -11 -11 -11 -11 -11 -10 -9 -8 -8 -8 -8 -8 -7 -7 -6 -6 -6
-8 -8 -8 -8 -8 -8 -8 -8 -9 -9 -10 -10 -10 -10 -10 -10 -11 -11 -11 -11 -11 -11 -10 -11 -11 -11 -10 -10 -8 -8 -8 -8 -8 -8 -7 -7 -6 -6
-8 -8 -8 -9 -8 -8 -9 -9 -10 -10 -10 -10 -10 -10 -10 -10 -11 -11 -11 -11 -11 -11 -10 -11 -11 -11 -10 -9 -9 -9 -9 -8 -8 -8 -7 -7 -7 -7
-9 -9 -9 -9 -9 -9 -10 -10 -11 -10 -11 -11 -11 -11 -11 -11 -10 -10 -11 -11 -11 -11 -10 -10 -10 -10 -10 -10 -9 -9 -8 -8 -8 -7 -6 -6 -6 -6
-9 -9 -9 -9 -10 -10 -11 -11 -11 -11 -11 -11 -12 -11 -11 -10 -10 -10 -10 -10 -10 -10 -10 -10 -10 -10 -10 -10 -10 -9 -8 -7 -6 -6 -5 -5 -4 -4
-9 -9 -10 -10 -11 -11 -11 -11 -11 -11 -12 -12 -12 -11 -11 -10 -10 -10 -10 -10 -10 -10 -10 -10 -10 -10 -10 -10 -10 -9 -7 -6 -5 -5 -4 -4 -3 -3
-10 -10 -11 -11 -11 -11 -11 -10 -11 -12 -12 -12 -12 -11 -11 -10 -10 -10 -11 -10 -10 -10 -9 -9 -9 -9 -9 -8 -8 -8 -7 -7 -5 -4 -4 -3 -2 -2
-11 -11 -11 -11 -11 -11 -11 -11 -11 -12 -12 -11 -11 -11 -11 -11 -10 -10 -10 -10 -10 -10 -9 -9 -9 -9 -8 -8 -7 -7 -6 -5 -4 -4 -3 -2 -1 -1
-12 -12 -12 -12 -12 -12 -12 -12 -12 -12 -11 -11 -10 -10 -10 -10 -10 -10 -10 -10 -10 -10 -9 -9 -9 -8 -7 -7 -7 -6 -5 -4 -4 -3 -3 -2 -2 -1
-12 -13 -13 -13 -12 -12 -12 -12 -12 -11 -11 -10 -10 -10 -10 -10 -10 -10 -10 -10 -10 -9 -9 -9 -8 -8 -8 -8 -6 -6 -5 -4 -4 -4 -3 -3 -2 -1
-13 -13 -13 -12 -12 -12 -12 -12 -11 -10 -10 -10 -9 -9 -9 -10 -10 -10 -10 -10 -9 -9 -9 -8 -8 -8 -7 -7 -7 -6 -5 -4 -4 -4 -4 -3 -3 -2
-13 -13 -12 -12 -11 -11 -11 -11 -11 -10 -10 -9 -9 -9 -9 -9 -9 -9 -9 -9 -9 -9 -9 -8 -8 -7 -6 -6 -6 -5 -5 -5 -4 -4 -4 -4 -4 -4
-13 -12 -11 -11 -11 -11 -10 -10 -10 -9 -9 -8 -8 -8 -8 -8 -8 -9 -9 -9 -9 -9 -8 -8 -7 -6 -6 -6 -6 -6 -5 -5 -5 -4 -4 -4 -4 -4
-12 -12 -11 -10 -10 -10 -10 -9 -9 -9 -8 -8 -8 -8 -8 -8 -8 -8 -8 -8 -8 -8 -8 -8 -7 -7 -6 -6 -6 -6 -6 -6 -5 -5 -5 -4 -4 -4
Wind_Speed
7 7 5 5 5 7 7 8 10 19 17 8 5 5 5 7 16 15 12 23 31 32 33 35 36 35 34 33 34 32 31 33 35 36 36 35 33 33
6 6 5 5 7 7 8 8 8 13 17 11 8 7 9 14 21 14 13 28 29 31 33 34 35 34 34 34 35 34 34 36 36 36 35 35 35 34
7 7 7 8 8 8 9 9 10 10 15 17 12 9 9 11 13 8 11 10 15 29 34 36 35 34 35 36 37 37 37 36 34 34 34 34 35 35
8 7 7 9 10 10 9 10 11 10 12 18 17 13 12 11 10 10 14 16 11 28 33 32 33 35 36 36 36 34 32 32 34 34 34 33 33 33
8 7 7 9 11 11 12 12 10 11 9 14 18 16 13 9 11 15 16 13 18 21 26 28 31 33 34 34 33 33 35 35 34 33 33 33 33 34
7 7 8 9 11 13 12 9 10 12 12 14 16 16 11 9 11 14 18 12 14 16 20 24 27 31 32 33 34 34 33 33 32 32 31 31 32 33
7 8 9 14 19 17 15 13 14 14 14 15 17 15 13 13 14 14 18 17 13 11 12 15 14 14 17 25 29 30 32 32 32 31 32 32 32 31
9 9 10 13 17 23 26 27 25 20 18 16 15 16 18 16 15 17 18 19 17 9 11 17 13 15 13 11 25 32 33 33 33 33 34 34 33 32
10 11 13 14 19 13 21 26 23 28 23 18 17 17 19 19 19 20 18 19 20 16 16 19 12 14 14 18 30 32 33 34 34 33 33 33 33 33
11 11 11 11 14 19 17 15 14 11 18 16 12 14 16 15 16 18 19 19 17 13 12 17 15 15 17 14 27 32 33 32 32 32 31 30 28 28
11 11 12 12 23 29 21 16 13 14 22 25 26 25 30 29 23 16 15 15 17 16 11 11 16 16 16 15 19 28 28 29 30 32 33 32 31 28
9 10 19 22 28 28 16 11 15 17 16 17 19 21 19 20 24 15 14 15 16 13 9 7 14 13 11 9 9 9 14 24 30 31 32 32 30 20
11 10 11 24 25 25 24 13 20 21 14 15 15 15 14 13 13 13 13 14 15 15 13 12 14 13 12 12 12 11 10 12 14 19 24 28 28 23
11 9 11 23 26 26 20 22 27 22 13 14 14 14 13 14 14 14 16 16 16 19 19 18 14 14 14 16 13 10 10 12 13 15 13 19 21 24
11 19 21 24 23 16 22 25 20 12 13 14 14 14 12 13 14 14 14 14 16 16 16 16 15 13 12 13 12 12 12 12 11 11 12 12 11 9
10 13 21 21 18 20 18 15 11 12 14 13 14 14 14 12 13 13 14 14 13 13 10 11 12 13 11 10 11 13 12 9 12 15 12 9 7 6
14 6 8 10 10 12 12 12 12 13 13 13 14 15 15 14 14 13 12 13 13 13 11 9 9 10 8 6 7 11 13 13 12 10 7 6 5 5
15 10 10 10 11 14 14 14 14 13 13 14 13 13 14 14 15 13 12 12 13 12 11 10 10 7 5 4 8 10 10 8 9 9 7 6 9 9
11 9 10 12 13 13 13 13 14 13 13 13 13 13 13 13 13 13 13 12 12 11 11 10 8 5 6 7 8 12 10 8 10 11 11 9 11 13
10 11 11 12 13 13 13 13 14 14 13 13 13 13 12 13 13 13 12 12 12 11 10 9 7 7 5 5 6 7 16 12 10 11 11 11 12 17
12 12 12 12 13 13 13 13 13 14 14 14 13 13 12 12 12 12 11 15 12 9 9 9 9 12 6 4 4 7 10 17 19 14 12 10 12 18
13 13 13 13 13 13 13 13 13 14 14 13 13 13 12 12 12 12 10 10 9 8 7 7 8 8 6 7 8 8 10 11 16 25 27 24 14 14
13 13 13 13 12 12 12 13 14 14 13 13 12 12 12 12 11 9 9 8 7 7 6 6 7 6 6 6 6 7 11 11 10 13 17 27 30 30
Wind_Direction
305 302 300 298 303 299 296 294 299 306 304 294 286 250 248 272 292 296 281 297 302 300 301 301 298 294 292 292 290 288 290 292 290 286 283 281 279 279
302 304 304 303 306 304 300 296 289 293 297 299 294 282 281 297 300 297 289 299 299 297 296 297 296 293 292 293 291 289 291 289 285 283 281 280 278 277
299 303 300 304 309 308 303 298 294 289 292 300 299 296 288 285 293 281 286 280 284 291 294 293 292 293 294 294 293 291 289 286 285 285 283 281 278 275
295 295 295 312 310 308 303 299 296 287 286 297 303 303 292 287 292 296 303 298 287 291 292 293 294 294 293 292 291 288 288 290 290 287 284 282 280 277
286 283 288 304 309 305 300 295 293 297 293 297 299 299 296 301 304 300 296 293 294 294 295 295 294 294 294 293 293 295 294 291 287 283 281 280 278 276
275 269 277 294 301 301 300 295 303 302 298 297 299 299 298 299 299 305 306 297 293 293 293 293 293 295 295 295 294 292 290 287 283 279 279 280 278 275
277 265 274 304 309 308 309 312 308 304 304 304 304 306 309 310 307 306 303 302 293 290 290 289 288 284 286 287 288 288 286 284 280 279 283 283 280 276
288 278 288 299 302 310 311 308 307 308 308 308 311 309 305 305 305 304 304 304 301 297 289 295 293 289 286 281 285 287 287 286 284 283 282 279 277 274
307 302 308 312 314 302 297 303 306 309 312 311 303 302 305 307 306 304 302 299 298 300 300 296 291 288 288 288 290 288 287 285 283 281 279 275 271 269
308 304 298 294 297 302 304 309 308 313 308 304 299 301 304 302 300 302 300 298 294 290 287 292 296 293 293 287 288 285 285 283 283 282 281 277 272 268
307 304 308 303 306 315 321 320 321 312 314 314 313 311 310 310 308 307 304 303 301 299 293 288 294 295 292 287 282 284 284 284 284 285 282 278 274 269
301 299 310 314 317 326 330 328 319 314 317 319 316 312 308 304 307 306 302 300 299 299 293 284 295 301 298 275 268 275 281 283 285 286 283 278 272 266
313 312 311 321 328 331 331 323 313 321 325 318 313 309 308 306 305 301 297 295 296 294 296 298 297 296 291 293 293 286 280 282 286 285 282 276 268 258
318 316 321 329 331 331 329 321 324 328 321 314 313 313 312 309 306 303 298 293 287 287 291 293 293 296 299 298 300 297 293 289 286 283 278 274 270 258
321 326 331 332 333 330 323 326 329 322 317 316 315 312 308 302 304 305 302 297 292 288 288 286 290 295 293 294 297 296 304 302 291 287 288 282 268 254
323 330 334 331 330 327 326 324 321 316 319 316 313 311 310 309 311 312 311 312 309 307 295 287 293 298 299 291 287 289 295 293 298 301 296 287 276 253
336 330 325 327 327 327 326 324 323 322 320 316 314 314 314 315 314 315 311 312 312 315 320 318 312 304 283 263 283 292 300 303 302 307 310 315 313 305
339 328 327 325 325 325 324 322 322 320 319 316 313 312 313 314 314 315 315 316 318 320 323 323 328 330 330 286 261 296 312 319 330 341 345 348 1 354
336 326 325 325 323 320 319 318 317 316 314 313 311 311 312 312 313 315 318 321 322 323 325 326 330 330 337 338 325 334 350 350 354 3 9 14 16 15
331 328 324 322 319 318 317 317 316 315 315 313 311 311 311 312 313 314 317 321 324 327 328 332 336 339 325 314 312 328 8 20 11 9 7 17 27 27
330 326 321 318 317 316 315 314 313 312 311 311 310 310 311 312 312 311 314 321 328 329 331 335 330 337 329 329 1 14 21 30 40 35 17 15 32 41
325 321 318 315 315 314 313 313 313 312 311 309 308 309 309 310 310 309 314 319 323 325 320 322 331 344 3 25 32 28 31 32 36 43 46 48 50 51
322 319 316 314 313 313 313 311 310 308 306 304 304 305 307 308 306 308 313 314 319 324 324 332 343 353 4 16 30 36 37 35 37 48 52 52 60 65
Height
1443 1439 1435 1431 1427 1423 1418 1412 1405 1391 1381 1382 1382 1380 1378 1374 1371 1367 1363 1359 1355 1350 1346 1341 1336 1332 1328 1325 1322 1319 1316 1313 1311 1309 1308 1307 1305 1304
1438 1433 1429 1425 1420 1414 1409 1404 1400 1393 1380 1372 1372 1370 1367 1364 1361 1357 1353 1348 1344 1340 1335 1330 1325 1321 1316 1312 1309 1306 1303 1300 1298 1296 1294 1293 1292 1291
1432 1428 1423 1418 1412 1407 1401 1397 1393 1388 1379 1368 1364 1361 1357 1353 1348 1344 1340 1336 1332 1328 1323 1317 1312 1308 1304 1300 1296 1292 1290 1287 1285 1282 1281 1280 1279 1278
1426 1422 1417 1412 1406 1400 1395 1391 1387 1382 1376 1366 1357 1352 1348 1343 1338 1333 1329 1326 1320 1315 1309 1305 1300 1295 1291 1287 1283 1279 1277 1274 1271 1269 1268 1267 1266 1265
1421 1416 1411 1406 1399 1394 1390 1385 1380 1375 1370 1362 1352 1346 1339 1334 1329 1323 1317 1311 1307 1302 1298 1293 1288 1283 1278 1274 1270 1267 1265 1262 1259 1257 1255 1254 1253 1252
1415 1411 1406 1400 1394 1389 1384 1380 1375 1368 1362 1355 1346 1338 1331 1326 1322 1314 1304 1299 1294 1291 1286 1281 1277 1272 1267 1263 1259 1255 1252 1249 1247 1245 1243 1242 1241 1240
1409 1405 1400 1395 1390 1386 1381 1375 1369 1362 1355 1348 1340 1332 1325 1319 1313 1306 1297 1289 1283 1281 1274 1267 1264 1258 1253 1249 1246 1242 1240 1237 1235 1233 1231 1230 1229 1228
1403 1398 1394 1389 1384 1380 1375 1370 1364 1357 1349 1341 1333 1326 1319 1313 1305 1299 1292 1283 1273 1270 1265 1256 1253 1247 1242 1238 1234 1231 1228 1225 1223 1221 1218 1217 1216 1215
1397 1392 1387 1382 1378 1372 1366 1361 1356 1350 1344 1337 1328 1320 1312 1306 1299 1291 1285 1277 1268 1261 1257 1246 1242 1237 1232 1227 1223 1219 1215 1212 1209 1207 1205 1203 1202 1202
1391 1386 1381 1375 1370 1365 1359 1352 1346 1340 1336 1329 1322 1314 1306 1299 1293 1285 1277 1268 1260 1254 1250 1240 1232 1226 1220 1215 1211 1207 1203 1200 1197 1194 1192 1190 1188 1188
1386 1382 1377 1371 1365 1359 1352 1344 1337 1331 1326 1320 1313 1306 1298 1291 1285 1277 1269 1262 1252 1245 1241 1235 1225 1217 1210 1204 1200 1197 1194 1191 1187 1182 1178 1176 1174 1174
1380 1375 1371 1365 1359 1353 1346 1338 1330 1323 1316 1308 1301 1294 1288 1282 1277 1271 1264 1256 1247 1238 1232 1228 1218 1212 1201 1194 1190 1187 1182 1178 1173 1168 1163 1160 1159 1159
1375 1369 1364 1359 1353 1347 1341 1333 1326 1318 1310 1301 1293 1286 1281 1275 1269 1264 1258 1252 1243 1234 1228 1222 1214 1208 1202 1190 1182 1177 1173 1167 1160 1154 1148 1145 1143 1143
1372 1365 1359 1354 1348 1341 1334 1327 1321 1313 1304 1296 1289 1282 1276 1268 1262 1256 1250 1244 1238 1230 1223 1217 1211 1204 1196 1187 1178 1168 1163 1158 1151 1144 1139 1134 1131 1130
1367 1361 1355 1348 1341 1333 1327 1321 1314 1307 1300 1293 1286 1279 1272 1264 1257 1250 1243 1237 1230 1224 1218 1212 1206 1199 1193 1185 1176 1166 1158 1150 1145 1139 1133 1127 1124 1123
1361 1354 1349 1342 1336 1329 1322 1316 1309 1304 1298 1291 1283 1276 1269 1261 1254 1247 1240 1232 1225 1217 1213 1208 1201 1195 1187 1181 1175 1166 1158 1150 1141 1135 1130 1124 1121 1118
1356 1348 1342 1336 1329 1323 1317 1311 1306 1300 1294 1287 1281 1273 1266 1259 1252 1245 1238 1231 1225 1217 1209 1203 1198 1192 1185 1180 1173 1166 1157 1150 1144 1137 1130 1124 1119 1115
1351 1345 1339 1333 1327 1320 1314 1308 1302 1296 1291 1284 1278 1271 1264 1257 1250 1243 1237 1231 1224 1217 1210 1203 1197 1191 1186 1181 1176 1167 1160 1154 1147 1141 1134 1126 1120 1113
1348 1342 1337 1331 1324 1318 1312 1305 1299 1293 1288 1282 1275 1269 1263 1256 1249 1242 1236 1230 1224 1218 1212 1206 1200 1195 1190 1184 1179 1173 1167 1160 1153 1146 1139 1132 1125 1118
1345 1340 1334 1328 1322 1316 1309 1303 1296 1290 1284 1279 1273 1267 1260 1254 1248 1242 1236 1230 1225 1219 1213 1208 1203 1199 1195 1191 1185 1180 1175 1169 1162 1155 1148 1142 1135 1127
1342 1337 1331 1325 1319 1313 1307 1300 1294 1288 1282 1276 1270 1264 1258 1253 1247 1242 1236 1231 1226 1221 1216 1211 1207 1204 1200 1195 1191 1187 1183 1178 1173 1166 1159 1152 1147 1141
1339 1334 1328 1323 1317 1310 1304 1297 1291 1285 1279 1274 1268 1262 1257 1252 1247 1242 1237 1232 1227 1223 1219 1215 1211 1208 1204 1200 1197 1194 1191 1187 1183 1178 1173 1169 1164 1160
1337 1331 1326 1320 1314 1307 1301 1295 1289 1283 1277 1272 1266 1261 1256 1251 1246 1242 1238 1233 1229 1225 1222 1219 1215 1212 1209 1206 1204 1201 1199 1196 1193 1190 1187 1185 1181 1178